Location: Newark
(41.5729°N, 14.7036°E)
Time: 03:07:05
(UTC+00:00)

N. Korean satellite - Visible Passes

Search period start: 20 September 2019 00:00
Search period end: 30 September 2019 00:00
Orbit: 455 x 509 km, 97.2° (Epoch: 18 September)

Date Brightness Start Highest point End Pass type
(mag) Time Alt. Az. Time Alt. Az. Time Alt. Az.
22 Sep 9.7 04:10:52 10° NE 04:13:17 18° E 04:15:42 10° SE visible
26 Sep 9.9 04:03:42 10° ENE 04:05:42 15° E 04:07:42 10° SE visible
27 Sep 10.6 17:22:08 10° WSW 17:23:06 11° W 17:24:03 10° WNW visible
29 Sep 9.3 04:20:36 10° NE 04:23:29 24° E 04:26:23 10° SSE visible
